Regional Weather Roundup
Issued by NWS Charleston, SC

Current Version | Previous Version | Graphics & Text | Print | Product List | Glossary On
Versions: 1 2 3 4 5 6 7 8 9 10 11 12 13 14 15 16 17 18 19 20 21 22 23 24 25 26 27 28 29 30 31 32 33 34 35 36 37 38 39 40 41 42 43 44 45 46 47 48 49 50
000
ASUS42 KCHS 052011
RWRCHS

REGIONAL WEATHER ROUNDUP
NATIONAL WEATHER SERVICE CHARLESTON SC
300 PM EST THU MAR 05 2015

NOTE: "FAIR" INDICATES FEW OR NO CLOUDS BELOW 12,000 FEET WITH NO
SIGNIFICANT WEATHER AND/OR OBSTRUCTIONS TO VISIBILITY.

NOT ALL STATIONS ARE QUALITY CONTROLLED BY THE NATIONAL
WEATHER SERVICE. USE DATA WITH CAUTION...ESPECIALLY
DEWPOINT OBSERVATIONS.

SCZ027-030-031-034>040-042>050-052100-
...SOUTHEAST SOUTH CAROLINA...

CITY           SKY/WX    TMP DP  RH WIND       PRES   REMARKS
N CHARLESTON   PTSUNNY   80  63  55 SW20G25   29.94F
WATERFRONT PRK   N/A     66 N/A N/A SW18G26     N/A
MOUNT PLEASANT FAIR      73  64  73 S14G22    29.95S
PINOPOLIS        N/A     81  63  54 SW10      29.83
MONCKS CORNER  MOCLDY    82  63  51 SW15G22   29.91S
SUMMERVILLE    FAIR      82  61  47 W13G23    29.92F
BEAUFORT MCAS  PTSUNNY   83  62  49 SW17G30   29.94F
BEAUFORT ARPT  FAIR      75  64  69 S5G17     29.94F
HILTON HEAD IS MOSUNNY   73  63  68 S9G22     29.98F
WALTERBORO     MOCLDY    84  61  45 SW22      29.92F
ALLENDALE      CLOUDY    81  61  50 SW10G17   29.91S

...SOUTHERN MIDLANDS AND PEE DEE...

CITY           SKY/WX    TMP DP  RH WIND       PRES   REMARKS
GEORGETOWN     NOT AVBL
KINGSTREE      NOT AVBL
ORANGEBURG     CLOUDY    79  58  48 SW18G32   29.90S
BARNWELL       DRIZZLE   66  63  88 NW12G23   29.97R
AIKEN          LGT RAIN  61  61 100 W7        29.99F
MANNING        MOCLDY   N/A N/A N/A SW14G25   29.89S
COLUMBIA       RAIN      65  60  84 W14       29.94R
SUMTER         LGT RAIN  77  61  57 W31G39    29.89R
FLORENCE       CLOUDY    81  60  48 SW20      29.85F
MYRTLE BEACH   MOSUNNY  N/A N/A N/A S23G31    29.92R
N MYRTLE BEACH PTSUNNY   64  58  80 SW24G31   29.90F

$$

GAZ063-065-086>088-099>101-113>116-118-119-134>141-150-052100-
...SOUTHEAST GEORGIA...

CITY           SKY/WX    TMP DP  RH WIND       PRES   REMARKS
SAVANNAH ARPT  PTSUNNY   83  60  45 SW17G30   29.94F
HUNTER AAF     MOSUNNY   82  64  55 SW18G25   29.94F
FORT STEWART   MOSUNNY   82  63  51 S18G24    29.93F
STATESBORO     CLOUDY    80  62  54 SW15      29.93F
SYLVANIA       MOCLDY    82  64  53 SW13G21   29.94F
CLAXTON        FAIR      81  63  54 SW14G28   29.94F

...CSRA...CENTRAL AND FAR SOUTHEAST GEORGIA...

CITY           SKY/WX    TMP DP  RH WIND       PRES   REMARKS
THOMSON        CLOUDY    62  59  90 W3        29.99F
AUGUSTA-BUSH   LGT RAIN  61  57  87 W5        29.96F
AUGUSTA-DANIEL CLOUDY    62  58  86 CALM      29.95F
SWAINSBORO     RAIN      61  61 100 NW9G17    30.00R
VIDALIA        LGT RAIN  77  64  65 SW13G23   29.95F
EASTMAN        RAIN      60  60 100 NW7       30.03S
HAZLEHURST     CLOUDY    80  65  60 SW7G16    29.95F
ALMA           PTSUNNY   81  63  54 SW16G26   29.96F
WAYCROSS       MOSUNNY   86  67  53 SW17G26   29.97F
JESUP          FAIR      86  64  48 SW13G22   29.97F
BAXLEY         PTSUNNY   82  64  54 SW13G26   29.96F
BRUNSWICK      PTSUNNY   84  61  45 SW17      30.00F
SAINT SIMONS   MOSUNNY   82  62  50 SW13G24   29.99F

$$

SCZ027-028-034-036>038-045-046-048>050-GAZ119-141-052100-
...LAKE AND SUPPLEMENTAL COASTAL OBSERVATIONS...

STATION/POSITION TIME  TEMP    WIND        PRES    WAVE   SWELL
                       AIR SEA DIR/SP/G            HT/PER HT/PER/DIR
                 (UTC) (F)     (DEG/KT/KT) (MB)    (FT/S) (FT/S/D)
UPR LAKE MARION  NOT AVBL
WINYAH BAY       NOT AVBL
LAKE MURRAY      1900   62     290/ 11/ 35 1013.2R
ACE BASIN NERRS  NOT AVBL
FORT PULASKI     1900   71 53  200/ 11/ 17 1015.6F
SAPELO ISLAND    NOT AVBL

$$

ANZ835-935-AMZ111-154-330-350-352-354-370-450-454-472-052100-
...C-MAN AND BUOY OBSERVATIONS...

STATION/POSITION TIME  TEMP    WIND        PRES    WAVE   SWELL
                       AIR SEA DIR/SP/G            HT/PER HT/PER/DIR
                 (UTC) (F)     (DEG/KT/KT) (MB)    (FT/S) (FT/S/D)
BUOY 41004       1950   70 68  220/ 21/ 27 1014.1F   7/ 7   2/ 9
BUOY 41008       1950   60 56  190/ 12/ 14 1015.7F   3/10   2/100/10
FOLLY BEACH CMAN 2000   59     220/ 14/ 17 1015.0F
CAPERS NEARSHORE NOT AVBL
FRIPP NEARSHORE  NOT AVBL


STATION/POSITION TIME  TEMP    WIND        PRES    WAVE   SWELL
                       AIR SEA DIR/SP/G            HT/PER HT/PER/DIR
                 (UTC) (F)     (DEG/KT/KT) (MB)    (FT/S) (FT/S/D)
5E ST. MARYS GA  1921      56                N/A     3/10   2/100/11
FRYING PAN BUOY  1950   68 64  210/ 19/ 23 1014.2F   7/ 7   2/140/ 9
BUOY 41025       NOT AVBL
CAPE LOOKOUT NC  2000   61     210/ 14/ 21 1013.0F
BUOY 41002       1950   74 73  220/ 19/ 23 1018.2F   7/ 7   3/110/10
BUOY 41010       1920   75 75  180/ 14/ 17 1019.5F
ST AUGUSTINE FL  2000   82     260/  9/ 13 1017.2F


$$


USA.gov is the U.S. government's official web portal to all federal, state and local government web resources and services.